Погода в Новомаргаритове

Россия / Ростовская область     46°53′59″N   38°49′31″E
темп.,
°C
ветер,
м/с
пор.,
м/с
влажн.,
%
обл.,
%
осадки,
мм/ч
давл.,
гПа
погр.,
м
10 апреля, сб
сб1000:00+7ссв596088 0.0 1023443
03:00+7ссв676484 0.0 1022262
06:00+6ссв7116481 0.0 1022426
09:00+7ссв8115892 0.0 1022616
12:00+9св575777 0.0 1022255
15:00+11св345899 0.0 1021168
18:00+11св456799 0.0 102172
21:00+10всв1172100 0.0 102211
11 апреля, вс
вс1100:00+10ссв4468100 0.0 102243
03:00+9ссв5870100 0.0 1022178
06:00+8ссв81368100 0.0 1022495
09:00+8ссв91375100 0.3 1022626
12:00+9всв81084100 0.0 1021698
15:00+9св7986100 0.1 1021513
18:00+9св6987100 0.0 1021422
21:00+9св6988100 0.0 1020309
12 апреля, пн
пн1200:00+9ссв5689100 0.1 1020179
03:00+9ссв3388100 0.1 101952
06:00+9з2296100 2.7 101930
09:00+9зюз5697100 6.3 1020153
12:00+9зюз679398 0.0 1021271
15:00+9з5692100 0.0 1021217
18:00+10зюз5687100 0.0 1021146
21:00+9зюз4585100 0.0 102285
13 апреля, вт
вт1300:00+9з4585100 0.0 102291
03:00+9з4686100 0.0 1022125
06:00+9з5689100 0.0 1022139
09:00+9зюз5689100 0.0 1022199
12:00+9з568781 0.0 1022233
15:00+9з568596 0.0 1022149
18:00+10з3484100 0.0 102282
21:00+10зюз348598 0.0 102258
14 апреля, ср
ср1400:00+9юз3488100 0.0 102277
03:00+9зюз2389100 0.0 102142
06:00+9зюз228894 0.0 102032
09:00+9зюз2287100 0.0 102171
12:00+10зсз2284100 0.0 1020150
15:00+10зсз338087 0.0 101976
18:00+10з338237 0.0 101956
21:00+10з33815 0.0 101924